EW4809 Weather Reports


time (UTC)temp
C
wind
direction
speed
KPH
gust
KPH
rain 1hr
cm
rain 24hr
cm
rain mn
cm
humidity
%
barometer
mb
20260504080458 12 204 0.0 4.8 0.00 0.00 0.00 69 1011.8
20260504050735 13 160 1.6 11.3 0.00 0.00 0.00 58 1013.8
20260504050228 13 158 1.6 11.3 0.00 0.00 0.00 58 1013.8
20260504045722 13 229 1.6 9.7 0.00 0.00 0.00 58 1013.8
20260504045218 13 72 1.6 8.0 0.00 0.00 0.00 58 1013.8
20260504044717 13 198 1.6 9.7 0.00 0.00 0.00 59 1013.7
20260504044444 13 225 1.6 9.7 0.00 0.00 0.00 58 1013.7
20260504043717 13 69 0.0 9.7 0.00 0.00 0.00 59 1013.7
20260504043217 13 226 1.6 11.3 0.00 0.00 0.00 59 1013.8
20260504042935 13 162 1.6 11.3 0.00 0.00 0.00 59 1013.8
20260504042706 13 227 0.0 8.0 0.00 0.00 0.00 59 1013.8
20260504041717 13 230 0.0 8.0 0.00 0.00 0.00 60 1013.8
20260504041436 13 211 0.0 4.8 0.00 0.00 0.00 60 1013.8
20260504040718 13 227 0.0 4.8 0.00 0.00 0.00 61 1013.8
20260504040215 13 221 0.0 14.5 0.00 0.00 0.00 60 1014.0
20260504035712 13 299 0.0 14.5 0.00 0.00 0.00 59 1014.2
20260504035212 13 214 0.0 4.8 0.00 0.00 0.00 59 1014.2
20260504034712 13 254 0.0 6.4 0.00 0.00 0.00 60 1014.2
20260504034212 13 187 1.6 8.0 0.00 0.00 0.00 59 1014.3
20260504033933 12 226 0.0 8.0 0.00 0.00 0.00 60 1014.3
20260504033432 12 218 0.0 6.4 0.00 0.00 0.00 60 1014.3
20260504032707 12 224 1.6 6.4 0.00 0.00 0.00 60 1014.3
20260504032207 12 226 0.0 9.7 0.00 0.00 0.00 60 1014.4
20260504031708 12 186 0.0 9.7 0.00 0.00 0.00 60 1014.4
20260504031207 12 224 0.0 1.6 0.00 0.00 0.00 60 1014.4
20260504030709 12 212 0.0 6.4 0.00 0.00 0.00 60 1014.5
20260504030208 13 226 0.0 6.4 0.00 0.00 0.00 60 1014.8
20260504025708 13 226 0.0 6.4 0.00 0.00 0.00 59 1014.8
20260504025208 13 236 0.0 4.8 0.00 0.00 0.00 59 1014.7
20260504024708 13 136 0.0 14.5 0.00 0.00 0.00 59 1014.8
20260504024208 13 219 0.0 14.5 0.00 0.00 0.00 59 1014.9
20260504023708 13 202 0.0 4.8 0.00 0.00 0.00 59 1014.8
20260504023205 13 211 0.0 4.8 0.00 0.00 0.00 60 1014.7
20260504022705 13 200 0.0 4.8 0.00 0.00 0.00 59 1014.8
20260504022208 13 153 0.0 0.0 0.00 0.00 0.00 59 1014.8
20260504021704 13 219 0.0 3.2 0.00 0.00 0.00 58 1014.9
20260504021426 13 229 0.0 3.2 0.00 0.00 0.00 59 1015.0
20260504020701 13 147 0.0 6.4 0.00 0.00 0.00 59 1014.9
20260504020419 12 250 0.0 6.4 0.00 0.00 0.00 60 1014.8
20260504015659 12 212 0.0 0.0 0.00 0.00 0.00 60 1014.8
20260504015159 12 201 0.0 3.2 0.00 0.00 0.00 60 1014.9
20260504014650 12 208 0.0 3.2 0.00 0.00 0.00 60 1014.9
20260504014144 12 217 0.0 0.0 0.00 0.00 0.00 60 1015.1
20260504013858 12 217 0.0 0.0 0.00 0.00 0.00 59 1015.1
20260504013401 13 217 0.0 0.0 0.00 0.00 0.00 58 1015.0
20260504012629 13 217 0.0 0.0 0.00 0.00 0.00 58 1015.1
20260504012129 13 217 0.0 0.0 0.00 0.00 0.00 57 1015.1
20260504011631 13 217 0.0 0.0 0.00 0.00 0.00 56 1015.0
20260504011129 14 217 0.0 0.0 0.00 0.00 0.00 55 1014.9
20260504010627 14 217 0.0 0.0 0.00 0.00 0.00 54 1014.7
20260504010126 15 217 0.0 0.0 0.00 0.00 0.00 51 1014.8
20260504005625 15 217 0.0 0.0 0.00 0.00 0.00 50 1014.7
20260504005126 15 217 0.0 0.0 0.00 0.00 0.00 50 1014.7
20260504004626 15 213 0.0 0.0 0.00 0.00 0.00 49 1014.6
20260504004125 15 209 0.0 0.0 0.00 0.00 0.00 49 1014.5
20260504003625 15 233 0.0 0.0 0.00 0.00 0.00 48 1014.4
20260504003125 15 265 0.0 0.0 0.00 0.00 0.00 48 1014.4
20260504002625 15 257 0.0 1.6 0.00 0.00 0.00 47 1014.2
20260504002125 16 219 0.0 6.4 0.00 0.00 0.00 47 1014.0
20260504001626 16 214 0.0 6.4 0.00 0.00 0.00 45 1014.0
20260504001125 16 177 0.0 6.4 0.00 0.00 0.00 46 1014.2
20260504000625 16 214 1.6 11.3 0.00 0.00 0.00 44 1014.0
20260504000346 17 216 0.0 11.3 0.00 0.00 0.00 43 1014.2
20260503235620 17 229 1.6 14.5 0.00 0.00 0.00 42 1014.0
20260503235113 17 207 1.6 14.5 0.00 0.00 0.00 41 1014.2
20260503234833 17 58 1.6 8.0 0.00 0.00 0.00 41 1014.2
20260503234101 17 231 1.6 12.9 0.00 0.00 0.00 41 1014.2
20260503233821 17 202 1.6 12.9 0.00 0.00 0.00 40 1014.0
20260503233050 17 208 1.6 16.1 0.00 0.00 0.00 39 1014.0
20260503232543 17 196 1.6 16.1 0.00 0.00 0.00 39 1014.0
20260503232037 18 222 1.6 12.9 0.00 0.00 0.00 38 1014.0
20260503231531 18 184 0.0 11.3 0.00 0.00 0.00 39 1014.2
20260503231025 18 202 0.0 11.3 0.00 0.00 0.00 39 1014.3
20260503230518 18 232 1.6 9.7 0.00 0.00 0.00 38 1014.5
20260503230013 18 37 1.6 12.9 0.00 0.00 0.00 37 1014.5
20260503225507 17 105 3.2 12.9 0.00 0.00 0.00 39 1014.7
20260503225000 17 232 3.2 14.5 0.00 0.00 0.00 38 1014.8
20260503224455 17 226 3.2 14.5 0.00 0.00 0.00 39 1014.9
20260503223949 17 255 1.6 12.9 0.00 0.00 0.00 37 1014.9
20260503223930 17 221 1.6 14.5 0.00 0.00 0.00 38 1015.0
20260503222936 17 224 3.2 17.7 0.00 0.00 0.00 38 1015.2
20260503222431 17 32 3.2 17.7 0.00 0.00 0.00 36 1015.3
20260503221925 17 243 1.6 9.7 0.00 0.00 0.00 36 1015.5
20260503221420 17 210 1.6 9.7 0.00 0.00 0.00 36 1015.5
20260503221132 18 237 3.2 17.7 0.00 0.00 0.00 35 1015.3
20260503220643 18 188 3.2 17.7 0.00 0.00 0.00 37 1015.3
20260503220119 18 193 3.2 17.7 0.00 0.00 0.00 34 1015.3
20260503215356 18 158 4.8 17.7 0.00 0.00 0.00 36 1015.6
20260503214849 18 248 4.8 17.7 0.00 0.00 0.00 35 1015.8
20260503214342 18 226 4.8 17.7 0.00 0.00 0.00 35 1015.8
20260503213837 18 221 6.4 22.5 0.00 0.00 0.00 34 1015.8
20260503213331 18 219 6.4 22.5 0.00 0.00 0.00 35 1015.9
20260503213046 18 162 4.8 25.7 0.00 0.00 0.00 37 1015.9
20260503212319 18 254 4.8 25.7 0.00 0.00 0.00 34 1016.1
20260503211813 18 285 4.8 17.7 0.00 0.00 0.00 35 1016.1
20260503211524 18 244 3.2 17.7 0.00 0.00 0.00 36 1015.8
20260503210800 18 124 4.8 22.5 0.00 0.00 0.00 35 1015.7
20260503210301 18 217 8.0 22.5 0.00 0.00 0.00 35 1015.8
20260503205802 18 246 6.4 20.9 0.00 0.00 0.00 34 1015.9
20260503205301 18 181 3.2 22.5 0.00 0.00 0.00 34 1015.9
20260503204800 18 67 3.2 22.5 0.00 0.00 0.00 38 1016.2
20260503204524 18 210 3.2 20.9 0.00 0.00 0.00 34 1016.2
20260503204019 18 214 4.8 20.9 0.00 0.00 0.00 34 1016.3
20260503203518 18 252 6.4 20.9 0.00 0.00 0.00 36 1016.3
20260503202758 18 258 4.8 17.7 0.00 0.00 0.00 33 1016.4
20260503202516 18 235 3.2 17.7 0.00 0.00 0.00 34 1016.5
20260503201757 18 234 3.2 14.5 0.00 0.00 0.00 35 1016.6
20260503201257 18 220 3.2 16.1 0.00 0.00 0.00 36 1016.8
20260503200757 18 214 3.2 16.1 0.00 0.00 0.00 34 1016.8
20260503200257 18 242 4.8 16.1 0.00 0.00 0.00 34 1016.9
20260503195757 17 221 3.2 16.1 0.00 0.00 0.00 34 1016.8
20260503195258 18 206 3.2 14.5 0.00 0.00 0.00 33 1017.0
20260503195007 18 252 3.2 16.1 0.00 0.00 0.00 37 1017.3
20260503194513 18 143 3.2 16.1 0.00 0.00 0.00 34 1017.5
20260503194012 18 123 3.2 22.5 0.00 0.00 0.00 34 1017.7
20260503193250 17 210 4.8 22.5 0.00 0.00 0.00 36 1017.7
20260503192749 17 124 3.2 16.1 0.00 0.00 0.00 40 1017.8
20260503192249 17 229 3.2 14.5 0.00 0.00 0.00 34 1017.8
20260503191749 17 264 3.2 16.1 0.00 0.00 0.00 34 1018.0
20260503191249 17 266 3.2 16.1 0.00 0.00 0.00 38 1018.1
20260503190749 17 231 3.2 14.5 0.00 0.00 0.00 36 1018.1
20260503190248 17 250 1.6 11.3 0.00 0.00 0.00 35 1018.2
20260503185749 17 354 3.2 17.7 0.00 0.00 0.00 36 1018.6
20260503185249 17 66 4.8 19.3 0.00 0.00 0.00 37 1018.7
20260503184749 16 125 4.8 20.9 0.00 0.00 0.00 35 1018.7
20260503184512 17 233 3.2 20.9 0.00 0.00 0.00 36 1018.9
20260503183748 17 193 4.8 22.5 0.00 0.00 0.00 35 1018.9
20260503183248 16 191 6.4 22.5 0.00 0.00 0.00 35 1018.9
20260503182749 17 153 4.8 24.1 0.00 0.00 0.00 34 1018.8
20260503182249 17 124 3.2 24.1 0.00 0.00 0.00 39 1018.9
20260503181749 17 8 3.2 14.5 0.00 0.00 0.00 36 1019.0
20260503181248 16 226 3.2 14.5 0.00 0.00 0.00 38 1019.1
20260503180750 16 229 3.2 12.9 0.00 0.00 0.00 34 1019.2
20260503180249 16 208 3.2 11.3 0.00 0.00 0.00 35 1019.2
20260503175748 16 250 4.8 19.3 0.00 0.00 0.00 36 1019.2
20260503175249 16 239 4.8 19.3 0.00 0.00 0.00 34 1019.4
20260503174749 16 224 3.2 11.3 0.00 0.00 0.00 34 1019.5
20260503174248 16 229 1.6 14.5 0.00 0.00 0.00 36 1019.5
20260503173749 16 226 3.2 19.3 0.00 0.00 0.00 40 1019.5
20260503173249 16 288 3.2 19.3 0.00 0.00 0.00 35 1019.6
20260503172749 16 236 1.6 11.3 0.00 0.00 0.00 36 1019.7
20260503172249 16 110 1.6 11.3 0.00 0.00 0.00 34 1019.7
20260503171749 16 238 1.6 19.3 0.00 0.00 0.00 36 1019.9
20260503171246 16 201 3.2 19.3 0.00 0.00 0.00 37 1020.0
20260503170747 16 166 3.2 14.5 0.00 0.00 0.00 35 1020.1
20260503170244 16 142 1.6 14.5 0.00 0.00 0.00 36 1020.2
20260503160213 15 140 1.6 12.9 0.00 0.00 0.00 38 1020.9
20260503150608 15 259 1.6 11.3 0.00 0.00 0.00 47 1021.2
20260503150103 14 332 1.6 11.3 0.00 0.00 0.00 44 1021.2
20260503131356 8 205 1.6 12.9 0.00 0.00 0.00 71 1021.4
20260503130851 8 212 1.6 9.7 0.00 0.00 0.00 72 1021.3
20260503130343 7 221 0.0 8.0 0.00 0.00 0.00 74 1021.3
20260503110316 -17 0.0 0.0 0.00 0.00 0.00 1020.6
20260503090231 0 64 0.0 0.0 0.00 0.00 0.00 95 1020.3
20260503081227 0 64 0.0 0.0 0.00 0.00 0.00 94 1020.0